#timestamp,LO_Frequency,Hit,StdDev 
1655236815.1,286046998.9,N
1655236835.9,286046998.1,N
1655236855.7,286046998.5,N
1655236875.5,286046998.6,N
1655236895.4,286047001.1,N
1655236915.2,286046998.7,N
1655236935.0,286046998.1,N
1655236935.9,286046998.1,N
1655236955.8,286046998.5,N
1655236975.6,286046998.6,N
1655236995.5,286046998.3,N
1655237015.3,286046998.3,N
1655237035.1,286046998.1,N
1655237055.9,286046998.6,N
1655237075.7,286046998.3,N
1655237095.5,286047001.1,N
1655237115.4,286046998.5,N
1655237135.2,286047001.1,N
1655237155.1,286046998.5,N
1655237156.0,286046998.5,N
1655237175.8,286047001.0,N
1655237195.6,286046998.1,N
1655237215.5,286046998.8,N
1655237235.3,286046998.4,N
1655237255.1,286046998.2,N
1655237275.9,286046998.1,N
1655237295.7,286047001.0,N
1655237315.6,286047000.1,N
1655237335.4,286047000.6,N
1655237355.2,286047000.0,N
1655237375.1,286046999.8,N
1655237376.0,286046999.8,N
1655237395.8,286047000.0,N
1655237415.6,286047001.0,N
1655237435.5,286047000.8,N
1655237455.3,286046998.5,N
1655237475.2,286046998.4,N
1655237495.9,286046998.2,N
1655237515.7,286046998.1,N
1655237535.6,286046998.2,N
1655237555.4,286047000.8,N
1655237575.2,286047000.8,N
1655237595.1,286046998.6,N
1655237596.0,286046998.6,N
1655237615.8,286046998.4,N
1655237635.7,286046998.5,N
1655237655.5,286046998.2,N
1655237675.3,286046998.5,N
1655237695.2,286046998.3,N
1655237715.0,286047000.4,N
1655237715.9,286047000.4,N
1655237735.8,286047002.4,N
1655237755.6,286047002.4,N
1655237775.4,286046999.9,N
1655237795.3,286047002.3,N
1655237815.1,286047002.4,N
1655237835.8,286047002.0,N
1655237855.7,286047000.1,N
1655237875.5,286047000.4,N
1655237895.4,286047000.3,N
1655237915.2,286047000.3,N
1655237935.0,286047000.9,N
1655237935.9,286047000.9,N
1655237955.8,286047000.2,N
1655237975.6,286047002.0,N
1655237995.4,286047001.9,N
1655238015.3,286047002.2,N
1655238035.1,286047002.4,N
1655238055.9,286047002.6,N
1655238075.7,286047002.4,N
1655238095.5,286047002.7,N
1655238115.4,286047001.9,N
1655238135.2,286047004.0,N
1655238155.0,286047004.3,N
1655238155.9,286047004.3,N
1655238175.8,286047001.3,N
1655238195.6,286047001.7,N
1655238215.5,286047002.5,N
1655238235.3,286046999.7,N
1655238255.1,286047002.3,N
1655238275.9,286047002.7,N
1655238295.7,286047002.8,N
1655238315.5,286047000.0,N
1655238335.4,286046999.9,N
1655238355.2,286047002.7,N
1655238375.1,286047002.5,N
1655238376.0,286047002.5,N
1655238395.8,286047002.8,N
1655238415.6,286047001.0,N
1655238435.5,286046999.8,N
1655238455.3,286047002.3,N
1655238475.1,286047002.8,N
1655238495.9,286047002.2,N
1655238515.7,286047002.0,N
1655238535.6,286047002.6,N
1655238555.4,286047002.5,N
1655238575.2,286046999.8,N
1655238595.1,286047002.5,N
1655238596.0,286047002.5,N
1655238615.8,286047002.6,N
1655238635.7,286047002.6,N
1655238655.5,286047002.7,N
1655238675.3,286047001.9,N
1655238695.2,286047002.5,N
1655238715.0,286047001.9,N
1655238715.9,286047001.9,N
1655238735.7,286047000.0,N
1655238755.6,286047002.2,N
1655238775.4,286046999.8,N
1655238795.3,286047002.8,N
1655238815.1,286047002.8,N
1655238816.0,286047002.8,N
1655238835.8,286047001.5,N
1655238855.7,286047002.4,N
1655238875.5,286047002.6,N
1655238895.3,286047002.5,N
1655238915.2,286047001.6,N
1655238935.0,286047003.9,Y
1655238935.9,286047003.9,P
1655238955.8,286047000.9,N
1655238975.6,286047000.4,N
1655238995.4,286047000.9,N
1655239015.3,286046999.9,N
1655239035.1,286047000.3,N
1655239055.9,286047001.0,N
1655239075.7,286047001.1,N
1655239095.5,286047000.7,N
1655239115.4,286047001.0,N
1655239135.2,286047000.7,N
1655239155.0,286046998.1,N
1655239155.9,286046998.1,N
1655239175.8,286047001.1,N
1655239195.6,286047001.0,N
1655239215.5,286047000.7,N
1655239235.3,286047000.4,N
1655239255.2,286047001.0,N
1655239275.9,286046999.8,N
1655239295.7,286047001.1,N
1655239315.6,286047000.3,N
1655239335.4,286047000.5,N
1655239355.3,286047000.3,N
1655239375.1,286047000.2,N
1655239395.8,286047001.0,N
1655239415.7,286047001.1,N
1655239435.5,286046999.8,N
1655239455.4,286047000.1,N
1655239475.2,286047002.4,N
1655239495.1,286047001.7,N
1655239496.0,286047001.7,N
1655239545.8,286047000.2,E
1655239555.7,286047002.6,N
1655239575.6,286047002.8,P
1655239595.4,286047000.1,N
1655239615.3,286046999.8,N
1655239635.1,286046998.1,N
1655239636.0,286046998.1,N
1655239655.8,286047001.2,N
1655239675.7,286047000.6,N
1655239695.5,286047000.6,N
1655239715.4,286047001.0,N
1655239735.2,286047000.4,N
1655239755.0,286047000.3,N
1655239755.9,286047000.3,N
1655239775.8,286047002.7,N
1655239795.6,286047000.0,N
1655239815.4,286047000.8,N
1655239835.3,286046999.9,N
1655239855.1,286046999.9,N
1655239875.9,286047002.2,N
1655239895.7,286047002.3,N
1655239915.5,286047002.3,N
1655239935.4,286047000.5,N
1655239955.2,286047002.5,N
1655239975.1,286047001.9,N
1655239976.0,286047001.9,N
1655239995.8,286047002.3,N
1655240015.6,286047002.6,N
1655240035.5,286047002.0,N
1655240055.3,286047001.5,N
1655240075.1,286047002.3,N
1655240095.9,286047002.4,N
1655240115.7,286047002.3,N
1655240135.1,286047001.6,N
1655240136.0,286047001.6,N
1655240155.8,286047001.6,N
1655240175.7,286047001.6,N
1655240195.5,286047002.7,Y
1655240215.3,286047000.4,P
1655240235.2,286047000.0,N
1655240255.0,286046999.8,N
1655240255.9,286046999.8,N
1655240275.7,286047000.5,N
1655240295.6,286047000.9,N
1655240315.4,286047000.4,N
1655240335.3,286047002.7,Y
1655240355.1,286047000.2,P
1655240375.8,286047000.5,P
1655240395.7,286047000.6,P
